Regional Weather Roundup
Issued by NWS Upton, NY

Current Version | Previous Version | Text Only | Print | Product List | Glossary On
Versions: 1 2 3 4 5 6 7 8 9 10 11 12 13 14 15 16 17 18 19 20 21 22 23 24 25 26 27 28 29 30 31 32 33 34
000
ASUS41 KOKX 091259
RWROKX

REGIONAL WEATHER ROUNDUP
NATIONAL WEATHER SERVICE NEW YORK NY
800 AM EST FRI DEC 09 2016

NOTE: "FAIR" INDICATES FEW OR NO CLOUDS BELOW 12,000 FEET WITH NO
SIGNIFICANT WEATHER AND/OR OBSTRUCTIONS TO VISIBILITY.

NYZ071-072-176-178-NJZ106-104-091400-
NEW YORK CITY METRO AREA

CITY           SKY/WX    TMP DP  RH WIND       PRES   REMARKS
Central Park     N/A     34  19  55 MISG        N/A
Wall St Helipt MOSUNNY   34  21  60 W9        30.09R WCI  26
Bronx Bot Gard NOT AVBL
LaGuardia APRT PTCLDY    34  19  54 W12       30.09R WCI  25
Kennedy INTL   PTCLDY    34  18  52 W16G24    30.10R WCI  24
Breezy Point     N/A     32 N/A N/A W17G26      N/A  WCI  21
Newark/Liberty PTCLDY    32  18  56 W9        30.10R WCI  24
Teterboro      CLEAR     33  18  53 W12       30.08R WCI  24
$$

NYZ177-179-078>081-091400-
LONG ISLAND NEW YORK

CITY           SKY/WX    TMP DP  RH WIND       PRES   REMARKS
Jones Beach      N/A     32 N/A N/A W15G21      N/A  WCI  22
Matinecock PT  NOT AVBL
Farmingdale    CLEAR     32  19  58 W13       30.07R WCI  22
MacArthur/ISP  NOT AVBL
Shirley        NOT AVBL
Westhampton    CLEAR     31  19  61 SW9       30.05R WCI  23
Southampton    NOT AVBL
Bridgehampton  NOT AVBL
East Hampton     N/A     34  20  57 W9        30.01R WCI  26
Montauk          N/A     36  21  54 NW18G26   30.01R WCI  26
$$

NYZ052-065-067-091400-
HUDSON VALLEY

CITY           SKY/WX    TMP DP  RH WIND       PRES   REMARKS
White Plains   NOT AVBL
Newburgh       CLEAR     30  23  74 W14G23    30.05R WCI  20
Montgomery     PTCLDY    32  20  61 NW9       30.05R WCI  24
Poughkeepsie   MOCLDY    30  19  63 VRB7      30.04R WCI  23
Albany         PTCLDY    27  16  63 NW12      30.04R WCI  17
$$

NJZ001-105-106-008-010-013-015-019>022-104-091400-
NEW JERSEY

CITY           SKY/WX    TMP DP  RH WIND       PRES   REMARKS
Newark/Liberty PTCLDY    32  18  56 W9        30.10R WCI  24
Teterboro      CLEAR     33  18  53 W12       30.08R WCI  24
Caldwell       PTCLDY    32  18  56 VRB7      30.10R WCI  26
Somerville     CLEAR     31  18  58 W8        30.10R WCI  23
Linden           N/A     32  18  56 W13       30.11R WCI  22
Sussex         CLOUDY    32  19  58 VRB6      30.07R WCI  26
Andover          N/A     29  19  66 VRB5      30.09R WCI  24
Trenton        CLEAR     30  17  58 W10G17    30.15R WCI  21
Millville      CLEAR     29  18  63 W12       30.21R WCI  19
Atlantic City  CLEAR     30  16  56 W12       30.18R WCI  20
Wrightstown    NOT AVBL
Toms River     PTCLDY    30  19  63 W15G21    30.15R WCI  19
Belmar         CLEAR     30  19  63 W14       30.13R WCI  19
$$

PAZ047>061-062-071-091400-
EASTERN PENNSYLVANIA

CITY           SKY/WX    TMP DP  RH WIND       PRES   REMARKS
Philadelphia   CLEAR     31  17  56 W15       30.20R WCI  20
Allentown      MOCLDY    31  17  56 W12G21    30.14R WCI  22
Scranton       CLOUDY    28  20  71 SW9       30.09R WCI  19
$$

CTZ002-004>006-009-010-012-RIZ004-006-007-MAZ004-011-015-091400-
SOUTHERN NEW ENGLAND
 IN CT

CITY           SKY/WX    TMP DP  RH WIND       PRES   REMARKS
Bradley INTL   PTCLDY    31  19  61 NW14      29.99R WCI  21
Hartford       PTCLDY    33  16  49 W12G21    30.01R WCI  24
Danbury        CLEAR     31  17  56 NW10G20   30.03R WCI  22
Wtrbury/Oxford PTCLDY    30  16  55 NW8G17    30.00R WCI  23
Bridgeport     CLEAR     35  18  49 W10G20    30.03R WCI  27
Meriden        FLURRIES  32  22  66 NW9G21    30.02R WCI  24
New Haven      PTCLDY    34  20  56 W7        30.02R WCI  28
Chester        CLOUDY    32  19  59 NW7G16    29.99R WCI  26
Groton         NOT AVBL
Wilimantic     MOCLDY    33  20  58 NW9       29.99R WCI  25

 IN RI

CITY           SKY/WX    TMP DP  RH WIND       PRES   REMARKS
Providence     PTCLDY    31  18  58 W10       29.96R WCI  22
Block Island   MOCLDY    35  20  54 W17G33    30.00R WCI  25
Westerly       CLEAR     33  18  53 W7        30.00R WCI  27
 IN MA

CITY           SKY/WX    TMP DP  RH WIND       PRES   REMARKS
Boston         PTCLDY    33  19  56 W14G23    29.93R WCI  23
Worcester      PTCLDY    27  15  61 W20G28    29.89R WCI  13
Westfield      CLEAR     30  15  53 NW18G33   29.98R WCI  18
Provincetown   PTCLDY    34  22  61 W21G30    29.91R WCI  22
Nantucket      CLEAR     35  20  54 W20G30    29.93R WCI  24
$$

ANZ330-335-338-340-345-350-353-355-091400-
COASTAL MARINE OBSERVATIONS


STATION/POSITION TIME  SKY/WX   TEMP    WIND        PRES    VSBY  WAVE
                                AIR SEA DIR/SP/G                  HT/PER
                 (UTC)          (F)     (DEG/KT/KT) (MB)    (MI)  (FT/S)
NY HARB ENTRANCE 1150            36 52  280/ 25/ 31 1017.9          5/ 5
20 S FIRE ISLAND 1150            38 53  300/ 25/ 33 1017.3          7/ 6
GREAT SOUTH BAY  1215            34 41                N/A
23 SSW MONTAUK P 1150            38 54  280/ 23/ 31 1015.7          6/ 6
15 E BARNEGAT LI 1230               52                N/A           5/ 5
HUDSON CANYON    1150            40 57              1017.2         10/ 7
KINGS POINT      1230            34 46              1018.1
EXECUTION ROCKS  1245            36     250/ 14/ 19   N/A
CENTRAL LI SOUND 1245            37 49  280/ 21/ 27   N/A           4/ 5
EASTERN LI SOUND NOT AVBL
ROBBINS REEF     1230            32     270/ 19/ 23 1018.8
$$


>>>>>>>>>>>>>>>>>>>>>>>>>>>> KEY <<<<<<<<<<<<<<<<<<<<<<<<<<<
>                                                          <
>     SKY/WX - Sky Condition/Present Weather               <
>     TMP    - Temperature in Fahrenheit                   <
>     DP     - Dew Point in Fahrenheit                     <
>     RH     - Relative Humidity in Percent                <
>     WIND   - Direction (from) and Speed in MPH           <
>     PRES   - Mean Sea Level Pressure (inches of Hg)      <
>     WCI    - Wind Chill Index                            <
>     VSB    - VISIBILITY IN MILES                         <
>     HX     - HEAT INDEX                                  <
>     TC     - TEMPERATURE IN CELSIUS                      <
>     VRB    - VARIABLE WIND DIRECTION                     <
>                                                          <
>>>>>>>>>>>>>>>>>>>>>>>>>>>> KEY <<<<<<<<<<<<<<<<<<<<<<<<<<<




USA.gov is the U.S. government's official web portal to all federal, state and local government web resources and services.